GW5836 Weather Reports


time (UTC)temp
C
wind
direction
speed
KPH
gust
KPH
rain 1hr
cm
rain 24hr
cm
rain mn
cm
humidity
%
barometer
mb
20260505022836 13 75 0.0 0.0 0.00 0.00 0.00 66 1011.8
20260505022333 13 75 0.0 0.0 0.00 0.00 0.00 66 1011.6
20260505021830 13 96 0.0 0.0 0.00 0.00 0.00 67 1011.9
20260505021326 13 96 0.0 0.0 0.00 0.00 0.00 67 1011.8
20260505020822 14 96 0.0 0.0 0.00 0.00 0.00 67 1011.8
20260505020318 14 97 0.0 0.0 0.00 0.00 0.00 66 1011.7
20260505015815 14 76 0.0 0.0 0.00 0.00 0.00 65 1011.8
20260505015312 14 76 0.0 0.0 0.00 0.00 0.00 65 1011.9
20260505014810 15 76 0.0 0.0 0.00 0.00 0.00 65 1011.6
20260505014307 15 76 0.0 0.0 0.00 0.00 0.00 66 1011.4
20260505013803 15 96 0.0 0.0 0.00 0.00 0.00 64 1011.4
20260505013300 14 91 0.0 0.0 0.00 0.00 0.00 66 1011.4
20260505012759 14 65 0.0 0.0 0.00 0.00 0.00 65 1011.6
20260505012256 15 65 0.0 0.0 0.00 0.00 0.00 65 1011.6
20260505011751 15 64 0.0 0.0 0.00 0.00 0.00 63 1011.5
20260505011248 15 65 0.0 0.0 0.00 0.00 0.00 62 1011.5
20260505010744 15 64 0.0 0.0 0.00 0.00 0.00 61 1011.4
20260505010240 16 64 0.0 0.0 0.00 0.00 0.00 60 1011.3
20260505005737 16 64 0.0 0.0 0.00 0.00 0.00 58 1011.2
20260505005234 16 64 0.0 0.0 0.00 0.00 0.00 58 1011.2
20260505004731 16 65 0.0 0.0 0.00 0.00 0.00 57 1011.1
20260505004227 17 65 0.0 0.0 0.00 0.00 0.00 56 1010.9
20260505003725 17 65 0.0 0.0 0.00 0.00 0.00 55 1010.9
20260505003223 17 114 0.0 0.0 0.00 0.00 0.00 54 1011.0
20260505002718 17 104 0.0 0.0 0.00 0.00 0.00 53 1011.1
20260505002216 18 115 0.0 0.0 0.00 0.00 0.00 52 1011.0
20260505001714 18 115 0.0 0.0 0.00 0.00 0.00 51 1011.0
20260505001211 18 110 0.0 0.0 0.00 0.00 0.00 50 1011.2
20260505000708 18 114 0.0 0.0 0.00 0.00 0.00 49 1010.9
20260505000206 18 137 0.0 0.0 0.00 0.00 0.00 49 1010.9
20260504235702 19 123 0.0 0.0 0.00 0.00 0.00 48 1011.0
20260504235158 20 124 0.0 0.0 0.00 0.00 0.00 47 1010.7
20260504234656 20 118 0.0 0.0 0.00 0.00 0.00 46 1010.8
20260504234153 20 111 0.0 0.0 0.00 0.00 0.00 45 1011.0
20260504233648 20 151 0.0 0.0 0.00 0.00 0.00 44 1010.9
20260504233144 20 176 1.6 3.2 0.00 0.00 0.00 44 1010.9
20260504232642 20 132 0.0 0.0 0.00 0.00 0.00 44 1010.9
20260504232139 21 89 0.0 0.0 0.00 0.00 0.00 44 1011.1
20260504231636 21 161 0.0 0.0 0.00 0.00 0.00 43 1011.0
20260504231132 21 199 1.6 3.2 0.00 0.00 0.00 42 1011.0
20260504230628 21 121 1.6 3.2 0.00 0.00 0.00 42 1010.8
20260504230127 21 182 1.6 3.2 0.00 0.00 0.00 42 1010.7
20260504225625 21 123 0.0 1.6 0.00 0.00 0.00 41 1011.0
20260504225121 21 144 3.2 4.8 0.00 0.00 0.00 41 1010.8
20260504224618 21 251 3.2 6.4 0.00 0.00 0.00 41 1010.8
20260504224115 22 59 0.0 0.0 0.00 0.00 0.00 42 1010.8
20260504223612 22 194 1.6 1.6 0.00 0.00 0.00 41 1010.7
20260504223108 22 142 1.6 1.6 0.00 0.00 0.00 40 1010.6
20260504222605 22 167 1.6 1.6 0.00 0.00 0.00 39 1010.7
20260504222102 23 154 1.6 1.6 0.00 0.00 0.00 39 1010.7
20260504221559 23 168 3.2 4.8 0.00 0.00 0.00 37 1010.7
20260504221055 23 166 6.4 9.7 0.00 0.00 0.00 35 1010.7
20260504220552 23 181 3.2 3.2 0.00 0.00 0.00 34 1010.6
20260504220049 23 166 0.0 1.6 0.00 0.00 0.00 34 1010.7
20260504215546 23 186 1.6 3.2 0.00 0.00 0.00 35 1010.5
20260504215043 23 218 3.2 4.8 0.00 0.00 0.00 35 1010.5
20260504214539 23 113 1.6 1.6 0.00 0.00 0.00 35 1010.7
20260504214036 23 183 0.0 1.6 0.00 0.00 0.00 34 1010.8
20260504213532 23 168 1.6 1.6 0.00 0.00 0.00 35 1010.8
20260504213029 23 150 0.0 0.0 0.00 0.00 0.00 36 1010.8
20260504212525 23 127 1.6 3.2 0.00 0.00 0.00 35 1010.7
20260504212023 23 29 1.6 1.6 0.00 0.00 0.00 34 1010.8
20260504211520 23 325 3.2 4.8 0.00 0.00 0.00 35 1010.9
20260504211017 23 338 1.6 1.6 0.00 0.00 0.00 36 1010.8
20260504210514 23 234 6.4 6.4 0.00 0.00 0.00 34 1010.8
20260504210010 23 43 1.6 1.6 0.00 0.00 0.00 35 1010.9
20260504205508 24 253 1.6 1.6 0.00 0.00 0.00 35 1010.9
20260504205006 24 184 3.2 3.2 0.00 0.00 0.00 34 1010.8
20260504204504 24 190 1.6 1.6 0.00 0.00 0.00 36 1011.0
20260504204003 24 17 0.0 1.6 0.00 0.00 0.00 34 1011.0
20260504203500 24 223 3.2 3.2 0.00 0.00 0.00 35 1011.1
20260504202956 23 305 1.6 1.6 0.00 0.00 0.00 34 1011.0
20260504202452 24 193 6.4 6.4 0.00 0.00 0.00 35 1011.2
20260504201949 23 300 3.2 4.8 0.00 0.00 0.00 34 1011.1
20260504201447 23 265 3.2 4.8 0.00 0.00 0.00 36 1011.3
20260504200944 23 44 3.2 3.2 0.00 0.00 0.00 37 1011.2
20260504200441 23 241 1.6 1.6 0.00 0.00 0.00 34 1011.4
20260504195937 23 74 0.0 1.6 0.00 0.00 0.00 36 1011.3
20260504195433 24 264 1.6 1.6 0.00 0.00 0.00 34 1011.6
20260504194930 24 290 1.6 3.2 0.00 0.00 0.00 33 1011.6
20260504194426 24 4 0.0 0.0 0.00 0.00 0.00 34 1011.6
20260504193922 24 139 4.8 4.8 0.00 0.00 0.00 33 1011.7
20260504193420 25 68 1.6 1.6 0.00 0.00 0.00 36 1012.0
20260504192918 25 259 1.6 3.2 0.00 0.00 0.00 34 1012.0
20260504192415 25 10 1.6 1.6 0.00 0.00 0.00 35 1012.1
20260504191914 25 123 0.0 0.0 0.00 0.00 0.00 35 1012.1
20260504191411 25 99 1.6 1.6 0.00 0.00 0.00 35 1012.2
20260504190906 25 80 1.6 3.2 0.00 0.00 0.00 35 1012.2
20260504190403 25 116 0.0 0.0 0.00 0.00 0.00 37 1012.3
20260504185859 25 204 1.6 3.2 0.00 0.00 0.00 38 1012.5
20260504185357 25 208 0.0 1.6 0.00 0.00 0.00 34 1012.6
20260504184852 24 142 1.6 3.2 0.00 0.00 0.00 35 1012.4
20260504184348 24 222 1.6 3.2 0.00 0.00 0.00 33 1012.8
20260504183844 25 275 1.6 3.2 0.00 0.00 0.00 36 1012.9
20260504183342 25 165 1.6 1.6 0.00 0.00 0.00 32 1012.9
20260504182839 25 275 0.0 0.0 0.00 0.00 0.00 35 1012.7
20260504182337 25 169 1.6 1.6 0.00 0.00 0.00 35 1012.7
20260504181833 24 184 4.8 6.4 0.00 0.00 0.00 34 1012.9
20260504181331 24 328 3.2 3.2 0.00 0.00 0.00 31 1012.9
20260504180830 24 110 0.0 1.6 0.00 0.00 0.00 31 1013.1
20260504180328 24 273 0.0 1.6 0.00 0.00 0.00 32 1013.1
20260504175826 24 152 1.6 1.6 0.00 0.00 0.00 33 1013.1
20260504175322 24 128 0.0 1.6 0.00 0.00 0.00 38 1013.3
20260504174821 23 330 1.6 1.6 0.00 0.00 0.00 34 1013.4
20260504174318 24 265 0.0 1.6 0.00 0.00 0.00 31 1013.1
20260504173814 23 299 0.0 0.0 0.00 0.00 0.00 32 1013.2
20260504173311 23 348 3.2 3.2 0.00 0.00 0.00 33 1013.3
20260504172808 24 193 1.6 1.6 0.00 0.00 0.00 36 1013.5
20260504172305 23 208 3.2 3.2 0.00 0.00 0.00 35 1013.6
20260504171800 23 79 1.6 1.6 0.00 0.00 0.00 33 1013.7
20260504171258 23 338 0.0 0.0 0.00 0.00 0.00 36 1013.6
20260504170755 24 211 3.2 4.8 0.00 0.00 0.00 34 1013.8
20260504170252 23 244 0.0 1.6 0.00 0.00 0.00 32 1013.6
20260504160210 22 217 1.6 3.2 0.00 0.00 0.00 35 1014.7
20260504151138 21 207 1.6 1.6 0.00 0.00 0.00 38 1015.1
20260504150636 21 359 0.0 0.0 0.00 0.00 0.00 35 1015.1
20260504150132 21 255 0.0 0.0 0.00 0.00 0.00 36 1015.1
20260504141101 20 351 0.0 1.6 0.00 0.00 0.00 43 1015.2
20260504140557 19 57 0.0 0.0 0.00 0.00 0.00 45 1015.5
20260504130522 16 267 3.2 3.2 0.00 0.00 0.00 49 1015.7
20260504110409 8 119 0.0 0.0 0.00 0.00 0.00 76 1016.1
20260504100326 8 46 0.0 0.0 0.00 0.00 0.00 71 1016.3
20260504081720 8 18 0.0 0.0 0.00 0.00 0.00 70 1016.5
20260504081216 8 18 0.0 0.0 0.00 0.00 0.00 69 1016.8
20260504080712 7 29 0.0 0.0 0.00 0.00 0.00 70 1016.5
20260504080209 7 55 0.0 0.0 0.00 0.00 0.00 70 1016.6
20260504070137 8 99 0.0 0.0 0.00 0.00 0.00 65 1016.7
20260504050525 6 86 0.0 0.0 0.00 0.00 0.00 71 1016.6
20260504050022 6 86 0.0 0.0 0.00 0.00 0.00 70 1016.7
20260504045519 6 86 0.0 0.0 0.00 0.00 0.00 69 1016.7
20260504045014 6 83 0.0 0.0 0.00 0.00 0.00 69 1016.8
20260504044512 6 83 0.0 0.0 0.00 0.00 0.00 68 1016.7
20260504044009 6 86 0.0 0.0 0.00 0.00 0.00 69 1016.8
20260504043506 6 86 0.0 0.0 0.00 0.00 0.00 70 1017.0
20260504043004 6 86 0.0 0.0 0.00 0.00 0.00 68 1017.0
20260504042500 6 116 0.0 0.0 0.00 0.00 0.00 68 1016.7
20260504041957 6 114 0.0 0.0 0.00 0.00 0.00 68 1016.8
20260504041453 6 89 0.0 0.0 0.00 0.00 0.00 69 1016.7
20260504040949 6 83 0.0 0.0 0.00 0.00 0.00 71 1016.8
20260504040447 6 83 0.0 0.0 0.00 0.00 0.00 73 1016.8
20260504035943 5 74 0.0 0.0 0.00 0.00 0.00 76 1016.7
20260504035441 5 79 0.0 0.0 0.00 0.00 0.00 77 1016.8
20260504034937 5 113 0.0 0.0 0.00 0.00 0.00 77 1016.7
20260504034434 5 31 0.0 0.0 0.00 0.00 0.00 78 1016.6
20260504033931 5 40 0.0 0.0 0.00 0.00 0.00 79 1016.5
20260504033429 5 55 0.0 0.0 0.00 0.00 0.00 80 1016.4
20260504032926 5 59 0.0 0.0 0.00 0.00 0.00 80 1016.5
20260504032423 5 68 0.0 0.0 0.00 0.00 0.00 78 1016.4
20260504031919 5 68 0.0 0.0 0.00 0.00 0.00 78 1016.4
20260504031417 5 69 0.0 0.0 0.00 0.00 0.00 78 1016.4
20260504030913 5 82 0.0 0.0 0.00 0.00 0.00 77 1016.3
20260504030410 5 80 0.0 0.0 0.00 0.00 0.00 77 1016.1
20260504025906 6 11 0.0 1.6 0.00 0.00 0.00 77 1016.1
20260504025403 5 23 0.0 0.0 0.00 0.00 0.00 77 1016.3
20260504024900 6 75 0.0 0.0 0.00 0.00 0.00 77 1016.2
20260504024356 6 97 0.0 0.0 0.00 0.00 0.00 76 1016.2
20260504023854 6 46 0.0 0.0 0.00 0.00 0.00 76 1016.3
20260504023350 6 48 0.0 0.0 0.00 0.00 0.00 75 1016.3